Home > Weather > Copenhagen > Past weeks

Flag for Denmark Past Weather in Copenhagen, Denmark — Yesterday and Last 2 Weeks

Now
66 °F

Passing clouds.


Feels Like: 66 °F
Forecast: 62 / 71 °F
Wind: 3 mph from Southeast

Location: Koebenhavn-Kastrup Airport

Current Time: Jul 25, 2016 at 4:38:30 AM

Latest Report: Jul 25, 2016 at 4:20 AM


Visibility: N/A

Pressure: 30.09 "Hg

Humidity: 94%

Dew Point: 64 °F

Location of CopenhagenLocation

Past Weather in Copenhagen — Graph

°F

Copenhagen Temperature Yesterday

Maximum temperature yesterday: 75 °F (at 1:50 PM)
Minimum temperature yesterday: 64 °F (at 12:50 AM)
Average temperature yesterday: 70 °F

High & Low Weather Summary for the Past Weeks

 TemperatureHumidityPressure
High79 °F (Jul 22, 3:20 PM)100% (Jul 10, 8:50 AM)30.15 "Hg (Jul 10, 8:50 AM)
Low52 °F (Jul 14, 4:50 AM)41% (Jul 22, 10:20 AM)29.62 "Hg (Jul 11, 3:21 AM)
Average65 °F77%29.97 "Hg
* Reported Jul 10 3:20 AM — Jul 25 3:20 AM, Copenhagen, Weather by CustomWeather, © 2016

Note: Actual official high and low records may vary slightly from our data, if they occured in-between our weather recording intervals... More about our weather records

Advertising

Copenhagen Weather History for the Previous 24 Hours

Scroll right to see more
 ConditionsComfort  
Time TempWeatherWind HumidityBarometerVisibility
3:20 AM
Mon, Jul 25
66 °FClear.5 mph94%30.09 "Hg10 mi
2:50 AM64 °FClear.3 mph94%30.09 "Hg10 mi
2:20 AM66 °FClear.3 mph88%30.09 "Hg10 mi
1:50 AM66 °FClear.3 mph88%30.09 "Hg10 mi
1:20 AM66 °FClear.2 mph88%30.09 "Hg10 mi
12:50 AM68 °FClear.3 mph83%30.09 "Hg10 mi
12:20 AM68 °FClear.3 mph83%30.09 "Hg10 mi
11:50 PM
Sun, Jul 24
68 °FClear.6 mph83%30.09 "Hg10 mi
11:20 PM68 °FClear.6 mph83%30.09 "Hg10 mi
10:50 PM68 °FClear.3 mph83%30.12 "Hg10 mi
10:20 PM68 °FSunny.2 mph83%30.12 "Hg10 mi
9:50 PM68 °FSunny.3 mph83%30.12 "Hg10 mi
9:20 PM68 °FSunny.5 mph83%30.09 "Hg10 mi
8:50 PM70 °FSunny.7 mph78%30.09 "Hg10 mi
8:20 PM72 °FSunny.8 mph73%30.09 "Hg10 mi
7:50 PM72 °FSunny.9 mph69%30.09 "Hg10 mi
7:20 PM73 °FSunny.9 mph61%30.09 "Hg10 mi
6:50 PM73 °FSunny.10 mph61%30.09 "Hg10 mi
6:20 PM73 °FSunny.9 mph61%30.12 "Hg10 mi
5:50 PM75 °FSunny.9 mph47%30.12 "Hg10 mi
5:20 PM75 °FSunny.9 mph50%30.12 "Hg10 mi
4:50 PM75 °FSunny.9 mph50%30.12 "Hg10 mi
4:20 PM75 °FSunny.8 mph54%30.12 "Hg10 mi
3:50 PM75 °FPassing clouds.7 mph57%30.12 "HgN/A
3:20 PM75 °FPassing clouds.6 mph57%30.12 "HgN/A
2:50 PM75 °FPassing clouds.6 mph50%30.15 "HgN/A
2:20 PM75 °FPassing clouds.8 mph65%30.15 "HgN/A
1:50 PM75 °FPassing clouds.7 mph65%30.15 "HgN/A
1:20 PM73 °FPassing clouds.8 mph65%30.15 "HgN/A
12:50 PM73 °FPassing clouds.7 mph69%30.15 "HgN/A
12:20 PM73 °FPassing clouds.7 mph65%30.15 "HgN/A
11:50 AM73 °FPassing clouds.7 mph69%30.15 "HgN/A
11:20 AM73 °FPassing clouds.6 mph74%30.15 "HgN/A
10:50 AM73 °FPassing clouds.6 mph74%30.15 "HgN/A
10:20 AM72 °FPassing clouds.5 mph73%30.15 "HgN/A
9:50 AM72 °FPassing clouds.5 mph78%30.15 "HgN/A
9:20 AM70 °FSunny.5 mph83%30.15 "Hg10 mi
8:50 AM68 °FSunny.5 mph83%30.12 "Hg10 mi
8:20 AM68 °FSunny.3 mph83%30.12 "Hg10 mi
7:50 AM68 °FSunny.3 mph83%30.12 "Hg10 mi
7:20 AM68 °FSunny.No wind78%30.15 "Hg10 mi
6:50 AM66 °FSunny.1 mph83%30.15 "Hg10 mi
6:20 AM66 °FSunny.1 mph83%30.15 "Hg10 mi
5:50 AM66 °FClear.1 mph83%30.15 "Hg10 mi
5:20 AM66 °FClear.2 mph83%30.15 "Hg10 mi
4:50 AM64 °FClear.2 mph88%30.12 "Hg10 mi
4:20 AM66 °FClear.2 mph88%30.15 "Hg10 mi
Weather by CustomWeather, © 2016

See weather overviewHow to use our weather pages